User: anonymous   Login
Location: Wildlife_Club
(35.6000°N, 81.4330°W)
Time: 07:36:53
(UTC-04:00)
Language:

Altair - Orbit

View from above orbital plane
View from above orbital plane
View from above satellite
View from above satellite

Ground track
Ground track

The orbit data is extracted from the following two-line orbital elements,

1    50U 60009B   20217.71249379 -.00000091  00000-0 -42223-4 0  9993
2    50  47.2330 331.4923 0113683 109.7555 251.5535 12.20112394676577
Epoch (UTC): 04 August 2020 17:05:59
Eccentricity: 0.0113683
inclination: 47.2330°
perigee height: 1501 km
apogee height: 1682 km
right ascension of ascending node: 331.4923°
argument of perigee: 109.7555°
revolutions per day: 12.20112394
mean anomaly at epoch: 251.5535°
orbit number at epoch: 67657

The dashed part of the orbit path shows where the satellite is in the earth's shadow,  

DLR